CW7054 Weather Reports


Display with metric or nautical units.
time (UTC)temp
F
wind
direction
speed
MPH
gust
MPH
rain 1hr
in
rain 24hr
in
rain mn
in
humidity
%
barometer
mb
20260509011601 52 195 1.0 7.0 0.00 0.00 0.00 82 1012.7
20260509010051 52 263 0.0 7.0 0.00 0.00 0.00 81 1012.6
20260509004555 52 248 0.0 4.0 0.00 0.00 0.00 80 1012.4
20260509003046 53 272 0.0 8.0 0.00 0.00 0.00 78 1012.1
20260509001544 53 229 0.0 5.0 0.00 0.00 0.00 77 1011.9
20260509000045 53 244 1.0 7.0 0.00 0.00 0.00 75 1011.7
20260508234539 54 168 0.0 7.0 0.00 0.00 0.00 74 1011.5
20260508233039 54 257 1.0 8.0 0.00 0.00 0.00 74 1011.4
20260508231545 55 257 2.0 9.0 0.00 0.00 0.00 71 1011.3
20260508230037 55 185 3.0 8.0 0.00 0.00 0.00 69 1011.2
20260508224558 55 225 2.0 13.0 0.00 0.00 0.00 67 1011.0
20260508223035 56 211 1.0 9.0 0.00 0.00 0.00 67 1010.9
20260508221541 56 269 2.0 12.0 0.00 0.00 0.00 66 1011.0
20260508220035 56 254 2.0 10.0 0.00 0.00 0.00 65 1011.2
20260508214538 56 288 2.0 11.0 0.00 0.00 0.00 66 1011.1
20260508213035 57 180 1.0 7.0 0.00 0.00 0.00 65 1011.0
20260508211530 58 230 1.0 6.0 0.00 0.00 0.00 63 1011.0
20260508210031 58 258 3.0 9.0 0.00 0.00 0.00 65 1010.8
20260508204529 58 263 1.0 8.0 0.00 0.00 0.00 66 1010.7
20260508203029 57 274 2.0 8.0 0.00 0.00 0.00 67 1010.7
20260508201528 58 241 4.0 12.0 0.00 0.00 0.00 64 1010.8
20260508200041 60 184 3.0 11.0 0.00 0.00 0.00 61 1010.6
20260508194527 60 251 3.0 10.0 0.00 0.00 0.00 60 1010.3
20260508193028 59 264 2.0 9.0 0.00 0.00 0.00 64 1010.2
20260508191528 59 253 3.0 12.0 0.00 0.00 0.00 64 1010.3
20260508190026 58 188 1.0 11.0 0.00 0.00 0.00 67 1010.4
20260508184528 57 252 2.0 8.0 0.00 0.00 0.00 65 1010.3
20260508183025 57 277 2.0 8.0 0.00 0.00 0.00 65 1010.5
20260508181523 58 212 2.0 8.0 0.00 0.00 0.00 66 1010.6
20260508180024 58 187 2.0 11.0 0.00 0.00 0.00 60 1010.6
20260508174526 59 183 3.0 14.0 0.00 0.00 0.00 61 1010.6
20260508173026 59 164 2.0 10.0 0.00 0.00 0.00 66 1010.6
20260508171532 59 168 2.0 9.0 0.00 0.00 0.00 62 1010.7
20260508170021 59 180 2.0 9.0 0.00 0.00 0.00 63 1010.7
20260508164523 59 193 3.0 9.0 0.00 0.00 0.00 65 1010.7
20260508163025 58 191 3.0 10.0 0.00 0.00 0.00 66 1010.8
20260508161531 58 246 3.0 10.0 0.00 0.00 0.00 67 1010.9
20260508160021 58 232 2.0 6.0 0.00 0.00 0.00 68 1011.0
20260508154520 58 188 3.0 10.0 0.00 0.00 0.00 68 1011.2
20260508153019 59 163 2.0 8.0 0.00 0.00 0.00 71 1011.1
20260508151518 60 176 3.0 12.0 0.00 0.00 0.00 63 1011.0
20260508150020 60 248 1.0 7.0 0.00 0.00 0.00 51 1011.0
20260508144528 59 286 2.0 7.0 0.00 0.01 0.00 55 1011.1
20260508143024 58 329 1.0 9.0 0.00 0.01 0.00 54 1011.1
20260508141514 58 304 3.0 8.0 0.00 0.01 0.00 58 1011.3
20260508140006 57 285 2.0 5.0 0.00 0.01 0.00 59 1011.3
20260508134504 57 355 2.0 10.0 0.00 0.02 0.00 58 1011.5
20260508133100 56 262 3.0 11.0 0.00 0.02 0.00 63 1011.5
20260508131600 54 315 2.0 6.0 0.00 0.02 0.00 66 1011.4
20260508130053 53 269 2.0 10.0 0.00 0.02 0.00 69 1011.7
20260508124550 52 277 1.0 6.0 0.00 0.04 0.00 70 1011.7
20260508123046 51 273 2.0 7.0 0.00 0.04 0.00 74 1011.6
20260508121547 50 304 1.0 3.0 0.00 0.04 0.00 75 1011.5
20260508120042 50 304 1.0 4.0 0.00 0.04 0.00 74 1011.3
20260508114540 50 302 1.0 3.0 0.00 0.06 0.00 76 1011.2
20260508113103 49 303 0.0 2.0 0.00 0.06 0.00 75 1011.1
20260508111539 49 322 0.0 3.0 0.00 0.06 0.00 76 1011.0
20260508110035 49 320 2.0 5.0 0.00 0.06 0.00 76 1010.8
20260508104547 49 314 0.0 6.0 0.00 0.08 0.00 75 1010.6
20260508103030 49 338 1.0 3.0 0.00 0.08 0.00 74 1010.5
20260508101536 49 338 0.0 3.0 0.00 0.08 0.00 73 1010.4
20260508100035 49 16 0.0 5.0 0.00 0.08 0.00 73 1010.1
20260508094527 49 9 0.0 4.0 0.00 0.12 0.00 73 1010.1
20260508093027 49 11 1.0 4.0 0.00 0.12 0.00 73 1010.1
20260508091528 49 18 1.0 4.0 0.00 0.12 0.00 71 1010.1
20260508090032 49 5 2.0 5.0 0.00 0.12 0.00 70 1010.2
20260508084524 49 344 2.0 5.0 0.00 0.16 0.00 70 1010.3
20260508083025 49 322 2.0 8.0 0.00 0.16 0.00 69 1010.2
20260508081522 48 325 3.0 6.0 0.00 0.16 0.00 70 1010.2
20260508080020 47 337 3.0 12.0 0.00 0.16 0.00 74 1010.2
20260508074519 46 22 2.0 5.0 0.00 0.19 0.00 77 1010.4
20260508073016 44 302 1.0 4.0 0.00 0.19 0.00 83 1010.0
20260508071511 44 265 0.0 0.0 0.00 0.19 0.00 88 1009.2
20260508070009 43 265 0.0 0.0 0.00 0.19 0.00 88 1008.9
20260508064534 43 265 0.0 0.0 0.00 0.20 0.00 86 1008.8
20260508063010 44 265 0.0 0.0 0.00 0.20 0.00 86 1008.4
20260508061506 44 265 0.0 0.0 0.00 0.20 0.00 86 1008.7
20260508060002 45 265 0.0 0.0 0.00 0.20 0.00 86 1008.6
20260508054626 45 265 0.0 0.0 0.00 0.20 0.00 85 1008.6
20260508053115 46 265 0.0 0.0 0.00 0.20 0.00 85 1008.4
20260508051600 46 265 0.0 0.0 0.00 0.20 0.00 84 1008.6
20260508050055 47 265 0.0 0.0 0.00 0.20 0.00 84 1008.6
20260508044552 47 265 0.0 0.0 0.00 0.20 0.00 84 1008.6
20260508043055 47 265 0.0 0.0 0.00 0.20 0.00 84 1008.6
20260508041548 47 265 0.0 0.0 0.00 0.20 0.00 84 1008.8
20260508040054 48 265 0.0 0.0 0.00 0.20 0.00 83 1008.8
20260508034548 48 265 0.0 0.0 0.00 0.20 0.20 82 1008.7
20260508033042 49 265 0.0 0.0 0.00 0.20 0.20 82 1008.8
20260508031551 49 265 0.0 0.0 0.00 0.20 0.20 81 1008.7
20260508030041 50 265 0.0 0.0 0.00 0.20 0.20 81 1008.6
20260508024540 50 265 0.0 1.0 0.00 0.20 0.20 80 1008.7
20260508023040 51 265 0.0 0.0 0.00 0.20 0.20 79 1008.6
20260508021541 51 265 0.0 1.0 0.00 0.20 0.20 78 1008.6
20260508020039 52 265 0.0 3.0 0.00 0.20 0.20 78 1008.9
20260508014539 52 265 0.0 3.0 0.00 0.20 0.20 77 1008.8
20260508013041 53 265 0.0 7.0 0.00 0.20 0.20 77 1008.5